Content
SEND FEEDBACK

Daily
Averages
Monthly
Summary
United States of America

HOPE, ARKANSAS


Home > North America > United States > Arkansas
Elevation: 109 meters     Latitude: 33 43N     Longitude: 093 39W

WEATHER
 
SELECT A DAY
Number of Records: 204,953;   Date Range: 1/1/95 - 10/24/14
 
SHARE

PRINT THIS DATA

[ ← Previous Day ]
WEATHER ALMANAC - 13 FEBRUARY, 2013
[ Next Day → ]
[ °F ]   °C
Weather ElementAverageHighLow
Temperature5.9 °C10.6 °C (3:53 pm)3 °C (6:24 am)
Dewpoint3.3 °C6 °C (12:48 am)1.7 °C (4:53 pm)
Humidity85 %100 % (12:48 am)56 % (3:53 pm)
Barometer1016.6 hPa1020 hPa (10:53 am)1013.5 hPa (12:48 am)
Wind Speed12.9 km/h20.4 km/h (4:13 am)
Weather ElementAverage
Visibility15 km
Wind DirectionWNW (283.9 °)

Weather ElementTotal
Precipitation---
Heating Degree Days11.6 (Base 18.3)
Averaged from 36 records on 13 February, 2013
WEATHER CONDITIONS BREAKOUT
WIND DIRECTION BREAKOUT
WEATHER BY HOUR - 13 FEBRUARY, 2013
[ °F ]   °C
Local TimeTemperatureDewpointHumidityBarometerVisibilityWind DirectionWind SpeedGust SpeedPrecipitationEventsConditions
12:48 AM6 °C6 °C100 %1013.5 hPa4.8 kmNW (310°)13 km/hOvercast
12:53 AM5.6 °C5.6 °C100 %1013.9 hPa6.4 kmNW (310°)14.8 km/hOvercast
1:03 AM6 °C6 °C100 %1013.5 hPa4 kmNW (310°)13 km/hOvercast
1:14 AM6 °C6 °C100 %1013.5 hPa6.4 kmNW (310°)14.8 km/hOvercast
1:53 AM5.6 °C5 °C96 %1013.9 hPa16.1 kmNW (310°)14.8 km/hOvercast
2:53 AM5.6 °C5 °C96 %1014.2 hPa16.1 kmWNW (300°)13 km/hOvercast
3:07 AM6 °C4 °C87 %1013.9 hPa16.1 kmNW (320°)16.7 km/hOvercast
3:34 AM5 °C4 °C93 %1014.6 hPa16.1 kmNW (320°)13 km/hMostly Cloudy
3:44 AM4 °C4 °C100 %1014.6 hPa16.1 kmWNW (300°)9.3 km/hScattered Clouds
3:53 AM4.4 °C3.9 °C97 %1014.9 hPa16.1 kmWNW (300°)14.8 km/hPartly Cloudy
4:13 AM4 °C4 °C100 %1014.9 hPa16.1 kmWNW (300°)20.4 km/hMostly Cloudy
4:53 AM4.4 °C3.3 °C93 %1015.6 hPa16.1 kmWNW (300°)14.8 km/hMostly Cloudy
5:53 AM4.4 °C2.8 °C89 %1016.6 hPa16.1 kmNNW (330°)7.4 km/hOvercast
6:24 AM3 °C2 °C93 %1016.9 hPa16.1 kmNW (320°)7.4 km/hScattered Clouds
6:31 AM4 °C3 °C93 %1016.9 hPa16.1 kmNW (310°)7.4 km/hMostly Cloudy
6:53 AM3.9 °C2.8 °C93 %1016.9 hPa16.1 kmWNW (290°)13 km/hMostly Cloudy
7:04 AM4 °C3 °C93 %1016.9 hPa16.1 kmWNW (290°)9.3 km/hScattered Clouds
7:14 AM4 °C3 °C93 %1017.3 hPa16.1 kmWNW (290°)16.7 km/hPartly Cloudy
7:53 AM4.4 °C2.8 °C89 %1017.9 hPa16.1 kmWNW (290°)14.8 km/hClear
8:53 AM5.6 °C3.3 °C85 %1019 hPa16.1 kmNW (310°)16.7 km/hPartly Cloudy
9:17 AM6 °C3 °C81 %1019.3 hPa16.1 kmNW (320°)20.4 km/hMostly Cloudy
9:53 AM6.7 °C3.3 °C79 %1019.3 hPa16.1 kmNNW (330°)13 km/hOvercast
10:53 AM6.7 °C3.3 °C79 %1020 hPa16.1 kmWNW (300°)18.5 km/hOvercast
11:53 AM7.2 °C2.8 °C74 %1019.6 hPa16.1 kmNNW (330°)13 km/hOvercast
12:53 PM7.8 °C2.8 °C71 %1018.6 hPa16.1 kmWest (280°)9.3 km/hOvercast
1:53 PM10 °C3.9 °C66 %1017.9 hPa16.1 kmWest (260°)14.8 km/hMostly Cloudy
2:53 PM10 °C2.2 °C59 %1017.3 hPa16.1 kmWest (260°)13 km/hScattered Clouds
3:53 PM10.6 °C2.2 °C56 %1017.3 hPa16.1 kmWNW (300°)13 km/hPartly Cloudy
4:53 PM10 °C1.7 °C57 %1016.9 hPa16.1 kmSW (230°)13 km/hClear
5:53 PM8.9 °C1.7 °C61 %1017.3 hPa16.1 kmSW (230°)9.3 km/hClear
6:53 PM6.7 °C2.8 °C76 %1017.3 hPa16.1 kmSSW (200°)9.3 km/hClear
7:53 PM5.6 °C2.2 °C79 %1017.6 hPa16.1 kmSW (220°)7.4 km/hClear
8:53 PM5.6 °C2.2 °C79 %1017.9 hPa16.1 kmSW (220°)11.1 km/hClear
9:53 PM5.6 °C2.2 °C79 %1017.9 hPa16.1 kmSSW (200°)13 km/hClear
10:53 PM4.4 °C2.2 °C86 %1017.9 hPa16.1 kmSSW (210°)11.1 km/hClear
11:53 PM3.9 °C2.2 °C89 %1018.3 hPa16.1 kmSSW (210°)9.3 km/hClear
Hourly data recorded from KTXK, located 0 kilometers away from Hope, Arkansas







STORIES FROM OUR PARTNERS